TimeEDT,TemperatureF,Dew PointF,Humidity,Sea Level PressureIn,VisibilityMPH,Wind Direction,Wind SpeedMPH,Gust SpeedMPH,PrecipitationIn,Events,Conditions,WindDirDegrees,DateUTC
12:52 AM,37.9,30.0,73,29.73,10.0,SSE,5.8,-,N/A,,Clear,150,2013-03-25 04:52:00
1:52 AM,37.9,30.0,73,29.72,10.0,Calm,Calm,-,N/A,,Clear,0,2013-03-25 05:52:00
2:52 AM,37.9,30.9,76,29.70,10.0,NE,4.6,-,N/A,,Clear,50,2013-03-25 06:52:00
3:52 AM,37.0,30.9,79,29.68,10.0,NNE,6.9,-,N/A,,Clear,30,2013-03-25 07:52:00
4:52 AM,36.0,30.0,79,29.65,10.0,NE,9.2,-,N/A,,Clear,40,2013-03-25 08:52:00
5:52 AM,36.0,28.9,76,29.64,10.0,NNE,12.7,-,N/A,,Clear,20,2013-03-25 09:52:00
6:52 AM,36.0,26.1,67,29.65,10.0,NNE,8.1,-,N/A,,Scattered Clouds,30,2013-03-25 10:52:00
7:52 AM,37.0,26.1,65,29.64,10.0,NNE,12.7,-,N/A,,Scattered Clouds,30,2013-03-25 11:52:00
8:52 AM,37.9,25.0,60,29.62,10.0,NE,15.0,-,N/A,,Overcast,40,2013-03-25 12:52:00
9:52 AM,39.9,26.1,58,29.63,10.0,NE,11.5,-,N/A,,Overcast,50,2013-03-25 13:52:00
10:52 AM,42.1,27.0,55,29.60,10.0,ENE,13.8,-,N/A,,Mostly Cloudy,70,2013-03-25 14:52:00
11:52 AM,42.1,28.9,60,29.58,10.0,East,13.8,-,N/A,,Overcast,80,2013-03-25 15:52:00
12:52 PM,42.1,28.9,60,29.55,10.0,East,15.0,-,N/A,,Overcast,90,2013-03-25 16:52:00
1:52 PM,42.1,32.0,67,29.51,10.0,East,16.1,-,N/A,,Overcast,80,2013-03-25 17:52:00
2:52 PM,42.1,33.1,70,29.46,10.0,East,15.0,-,N/A,,Overcast,80,2013-03-25 18:52:00
3:52 PM,41.0,32.0,70,29.46,10.0,East,11.5,-,0.00,,Overcast,100,2013-03-25 19:52:00
4:52 PM,41.0,33.1,73,29.46,10.0,East,12.7,-,0.00,,Overcast,90,2013-03-25 20:52:00
5:52 PM,39.9,33.1,77,29.46,10.0,ENE,4.6,-,N/A,,Overcast,70,2013-03-25 21:52:00
6:52 PM,43.0,30.0,60,29.49,10.0,NNE,11.5,-,N/A,,Overcast,20,2013-03-25 22:52:00
7:52 PM,42.1,28.0,58,29.51,10.0,NNE,13.8,23.0,N/A,,Overcast,30,2013-03-25 23:52:00
8:33 PM,39.2,30.2,70,29.53,10.0,NE,16.1,-,0.00,Rain,Light Rain,40,2013-03-26 00:33:00
8:52 PM,37.9,30.9,76,29.54,10.0,NE,9.2,-,0.00,Rain,Light Rain,50,2013-03-26 00:52:00
9:02 PM,37.4,32.0,81,29.54,10.0,NE,8.1,-,0.00,,Overcast,40,2013-03-26 01:02:00
9:52 PM,39.9,30.0,68,29.55,10.0,NNE,17.3,-,0.00,,Overcast,30,2013-03-26 01:52:00
10:52 PM,41.0,27.0,57,29.55,10.0,NNE,11.5,-,N/A,,Overcast,20,2013-03-26 02:52:00
11:52 PM,39.9,27.0,60,29.56,10.0,North,17.3,23.0,N/A,,Mostly Cloudy,10,2013-03-26 03:52:00